Location: ????????
(55.0559°N, 39.1270°E)
Time: 09:14:33
(UTC+00:00)

NOSS 0 Rocket - Pass Details

Date: 15 November 2025
Orbit: 934 x 953 km, 70.0° (Epoch: 14 December)

Event Time Altitude Azimuth Distance (km) Brightness Sun altitude
Exits shadow 01:20:17 62° 151° (SSE) 1,050 4.1 -30.4°
Maximum altitude 01:20:54 66° 119° (ESE) 1,021 4.1 -30.3°
Drops below altitude 10° 01:27:00 10° 39° (NE) 2,664 6.8 -29.5°
Sets 01:29:33 0° 37° (NE) 3,615 7.6 -29.1°
